Regional Weather Roundup
Issued by NWS

Home | Current Version | Previous Version | Graphics & Text | Print | Product List | Glossary On
Versions: 1 2 3 4 5 6 7 8 9 10 11 12 13 14 15 16 17 18 19 20 21 22 23 24 25 26 27 28 29 30 31 32 33 34 35 36 37 38 39 40 41 42 43 44 45 46 47 48 49 50
000
ASUS45 KBOU 300407
RWRCO

WEATHER ROUNDUP FOR COLORADO
NATIONAL WEATHER SERVICE DENVER/BOULDER CO
1000 PM MDT FRI MAY 29 2015

NOTE: "FAIR" INDICATES FEW OR NO CLOUDS BELOW 12000 FEET WITH NO
SIGNIFICANT WEATHER AND/OR OBSTRUCTIONS TO VISIBILITY.

COZ001>005-013-030-031-300500-
...NORTHWEST COLORADO...

CITY           SKY/WX    TMP DP  RH WIND       PRES   REMARKS
CRAIG          CLEAR     48  40  73 CALM      30.30R
HAYDEN         CLEAR     48  37  66 SE5       30.31R
MEEKER         CLEAR     50  42  74 S6        30.29R
MOUNT WERNER   NOT AVBL
STEAMBOAT SPGS CLEAR     49  37  63 SE5       30.33R
WALDEN         CLEAR     37  32  81 CALM      30.38S
$$

COZ006>008-011-300500-
...WEST CENTRAL VALLEYS...

CITY           SKY/WX    TMP DP  RH WIND       PRES   REMARKS
GRAND JUNCTION CLEAR     58  44  60 NE8       30.16R
MONTROSE       CLEAR     58  37  45 S6        30.24R
EAGLE          CLEAR     59  48  67 NE5       30.34R
RIFLE          CLEAR     56  41  57 SE3       30.23R
DELTA          CLEAR     62  37  38 SE7       30.19R
NUCLA          CLEAR     59  32  36 CALM      30.26R
$$

COZ017>023-064>068-300500-
...SOUTHWEST COLORADO...

CITY           SKY/WX    TMP DP  RH WIND       PRES   REMARKS
DURANGO        CLEAR     60  20  21 NW10      30.22R
CORTEZ         CLEAR     57  25  29 E6        30.21R
PAGOSA SPRINGS PTCLDY    51  32  47 NE5       30.28R
TELLURIDE      CLEAR     50  33  51 CALM      30.40R
WOLF CREEK PAS NOT AVBL
$$

COZ009-010-012-014-032>034-037-058>063-300500-
...CENTRAL COLORADO...

CITY           SKY/WX    TMP DP  RH WIND       PRES   REMARKS
ASPEN          MOCLDY    50  37  61 SE10      30.34R
BUENA VISTA    CLOUDY    50  33  52 NE5       30.37R
COPPER MTN     PTCLDY    34  27  75 SW7G16    30.53R WCI  28
BERTHOUD PASS  HAZE      27  19  74 NW16      30.54R VSB 1/4 WCI  14
COTTONWOOD PAS CLOUDY    45  32  61 E3        30.45R
GUNNISON       PTCLDY    50  30  46 NW7       30.35R
KREMMLING      PTCLDY    43  36  75 CALM      30.37R
LEADVILLE      PTCLDY    34  31  88 NE7       30.44R WCI  28
MONARCH PASS   MOCLDY    36  28  75 E22G29    30.62R
SALIDA         CLOUDY    54  41  63 NE6       30.42R
SUNLIGHT       PTCLDY    39  32  75 CALM      30.51R
WILKERSON PASS FOG       32  32 100 E5        30.52F VSB 1   WCI  27
$$

COZ069>075-300500-
...SAN LUIS VALLEY/SANGRE DE CRISTO MOUNTAINS...

CITY           SKY/WX    TMP DP  RH WIND       PRES   REMARKS
ALAMOSA        MOCLDY    59  27  29 SE8G26    30.28R
LA VETA PASS   CLOUDY   N/A N/A N/A MISG      30.46R
SAGUACHE       PTCLDY    50  32  50 NW9       30.31R
$$

COZ035-036-038>040-300500-
...NORTHERN COLORADO FRONT RANGE...

CITY           SKY/WX    TMP DP  RH WIND       PRES   REMARKS
DENVER INTL AP CLOUDY    50  44  80 E12       30.34R
DMNS CITY PARK   N/A     51  46  84 NE7       30.33S
AURORA         MOCLDY    50  45  83 NE12      30.35R
FRONT RANGE AP NOT AVBL
ERIE MUNI ARPT RAIN      52  48  85 CALM      30.34R
BOULDER MUN AP CLOUDY    50  48  93 NE5       30.34R
CENTENNIAL     CLOUDY    51  46  83 NE8       30.34R
BROOMFIELD     CLOUDY    54  48  82 NE12      30.35
FORT COLLINS   MOCLDY    52  45  76 CALM      30.35R
LONGMONT       DRIZZLE   54  48  80 CALM      30.36R
$$

COZ041-046-047-076>085-087-088-300500-
...PIKES PEAK/PALMER DIVIDE AND SOUTHERN FOOTHILLS...

CITY           SKY/WX    TMP DP  RH WIND       PRES   REMARKS
COLO. SPRINGS  CLOUDY    51  45  79 NW7       30.35R
A. F. ACADEMY  LGT RAIN  48  46  93 NW9       30.35R
ELLICOTT       CLOUDY   N/A N/A N/A NE17G23   30.32R
FALCON         CLOUDY    47  42  81 N8G16     30.36R
FORT CARSON    MOCLDY    52  47  84 N13       30.32R THUNDER
LIMON          CLOUDY    47  43  86 N14       30.32R
MONUMENT HILL  CLOUDY    45  43  93 SW8       30.38R
TRINIDAD       PTCLDY    50  47  89 NW5       30.31R
$$

COZ042>045-048>051-090-091-300500-
...NORTHEAST COLORADO...

CITY           SKY/WX    TMP DP  RH WIND       PRES   REMARKS
GREELEY ARPT   CLOUDY    52  46  82 E5        30.33R
AKRON          CLOUDY    47  44  90 N13       30.31R
BURLINGTON     CLOUDY    51  46  83 N17G28    30.26R
WRAY           CLOUDY    51  47  85 N8        30.28R
STERLING       CLOUDY    50  45  81 NE9       30.30R
HOLYOKE        CLOUDY    54  46  76 N13G18    30.30R
FORT MORGAN    CLOUDY    49  44  83 NE5       30.33R
$$

COZ086-089-092>099-300500-
...SOUTHEAST COLORADO...

CITY           SKY/WX    TMP DP  RH WIND       PRES   REMARKS
PUEBLO         CLOUDY    58  49  72 S5        30.29R
LA JUNTA       CLOUDY    61  49  64 NE21      30.25R
LAMAR          CLOUDY    58  49  72 NE17G26   30.22R
SPRINGFIELD      N/A     56  50  80 NE16      30.24R
$$


USA.gov is the U.S. government's official web portal to all federal, state and local government web resources and services.